SCP
0 0 0 0 0 0 0 0 0 0 0 0 0 0 0 0 0 0 0 1 1 0 0 0 0 0 0 0 0 0 0 1 1 1 1 1 1 1 1 1 2 2 3 3
0 0 0 0 0 0 0 0 0 0 0 0 0 0 0 0 0 0 0 0 0 0 0 0 0 0 0 0 0 0 0 0 1 1 1 1 1 1 1 1 1 2 2 2
0 0 0 0 0 0 0 0 0 0 0 0 0 0 0 0 0 0 0 0 0 0 0 0 0 0 0 0 0 0 0 0 0 0 0 1 1 1 1 1 1 1 1 2
0 0 0 0 0 0 0 0 0 0 0 0 0 0 0 0 0 0 0 0 0 0 0 0 0 0 0 0 0 0 0 0 0 0 0 0 1 1 1 1 1 1 1 1
0 0 0 0 0 0 0 0 0 0 0 0 0 0 0 0 0 0 0 0 0 0 0 0 0 0 0 0 0 0 0 0 0 0 0 0 0 1 1 1 1 1 1 1
0 0 0 0 0 0 0 0 0 0 0 0 0 0 0 0 0 0 0 0 0 0 0 0 0 0 0 0 0 0 0 0 0 0 1 1 0 0 1 1 1 1 1 0
0 0 0 0 0 0 0 0 0 0 0 0 0 0 0 0 0 0 0 0 0 0 0 0 0 0 0 0 0 0 0 0 0 0 1 1 1 1 1 1 1 0 0 0
0 0 0 0 0 0 0 0 0 0 0 0 0 0 0 0 0 0 0 0 0 0 0 0 0 0 0 0 0 0 0 0 0 1 1 1 1 1 1 1 0 0 0 0
0 0 0 0 0 0 0 0 0 0 0 0 0 0 0 0 0 0 0 0 0 0 0 0 0 0 0 0 0 0 0 0 0 1 1 0 0 0 1 1 0 0 0 0
0 0 0 0 0 0 0 0 0 0 0 0 0 0 0 0 0 0 0 0 0 0 0 0 0 0 0 0 0 0 0 0 0 0 0 0 0 0 0 0 0 0 0 0
0 0 0 0 0 0 0 0 0 0 0 0 0 0 0 0 0 0 0 0 0 0 0 0 0 0 0 0 0 0 0 0 0 0 0 0 0 0 0 0 0 0 0 0
0 0 0 0 0 0 0 0 0 0 0 0 0 0 0 0 0 0 0 0 0 0 0 0 0 0 0 0 0 0 0 0 0 0 0 0 0 0 0 0 0 0 0 0
0 0 0 0 0 0 0 0 0 0 0 0 0 0 0 0 0 0 0 0 0 0 0 0 0 0 0 0 0 0 0 0 0 0 0 0 0 0 0 0 0 0 0 0
0 0 0 0 0 0 0 0 0 0 0 0 0 0 0 0 0 0 0 0 0 0 0 0 0 0 0 0 0 0 0 0 0 0 0 0 0 0 0 0 0 0 0 0
0 0 0 0 0 0 0 0 0 0 0 0 0 0 0 0 0 0 0 0 0 0 0 0 0 0 0 0 0 0 0 0 0 0 0 0 0 0 0 0 0 0 0 0
0 0 0 0 0 0 0 0 0 0 0 0 0 0 0 0 0 0 0 0 0 0 0 0 0 0 0 0 0 0 0 0 0 0 0 0 0 0 0 0 0 0 0 0
0 0 0 0 0 0 0 0 0 0 0 0 0 0 0 0 0 0 0 0 0 0 0 0 0 0 0 0 0 0 0 0 0 0 0 0 0 0 0 0 0 0 0 0
0 0 0 0 0 0 0 0 0 0 0 0 0 0 0 0 0 0 0 0 0 0 0 0 0 0 0 0 0 0 0 0 0 0 0 0 0 0 0 0 0 0 0 0
0 0 0 0 0 0 0 0 0 0 0 0 0 0 0 0 0 0 0 0 0 0 0 0 0 0 0 0 0 0 0 0 0 0 0 0 0 0 0 0 0 0 0 0
0 0 0 0 0 0 0 0 0 0 0 0 0 0 0 0 0 0 0 0 0 0 0 0 0 0 0 0 0 0 0 0 0 0 0 0 0 0 0 0 0 0 0 0
0 0 0 0 0 0 0 0 0 0 0 0 0 0 0 0 0 0 0 0 0 0 0 0 0 0 0 0 0 0 0 0 0 0 0 0 0 0 0 0 0 0 0 0
0 0 0 0 0 0 0 0 0 0 0 0 0 0 0 0 0 0 0 0 0 0 0 0 0 0 0 0 0 0 0 0 0 0 0 0 0 0 0 0 0 0 0 0
0 0 0 0 0 0 0 0 0 0 0 0 0 0 0 0 0 0 0 0 0 0 0 0 0 0 0 0 0 0 0 0 0 0 0 0 0 0 0 0 0 0 0 0
0 0 0 0 0 0 0 0 0 0 0 0 0 0 0 0 0 0 0 0 0 0 0 0 0 0 0 0 0 0 0 0 0 0 0 0 0 0 0 0 0 0 0 0
0 0 0 0 0 0 0 0 0 0 0 0 0 0 0 0 0 0 0 0 0 0 0 0 0 0 0 0 0 0 0 0 0 0 0 0 0 0 0 0 0 0 0 0
0 0 0 0 0 0 0 0 0 0 0 0 0 0 0 0 0 0 0 0 0 0 0 0 0 0 0 0 0 0 0 0 0 0 0 0 0 0 0 0 0 0 0 0
Wind_Speed
2 4 6 6 7 4 3 5 6 4 1 5 9 9 7 6 6 6 6 5 5 4 2 1 1 1 1 0 0 1 1 1 1 1 1 1 1 1 1 1 1 2 1 2
4 6 5 4 4 5 6 6 6 4 2 5 7 10 8 7 7 6 6 6 5 4 2 1 1 1 1 1 0 1 1 1 1 0 0 0 0 0 1 1 1 1 1 2
6 1 2 5 6 6 7 8 7 5 3 4 6 8 7 5 5 4 4 4 4 4 3 2 2 1 1 1 1 1 1 1 1 1 1 1 1 1 1 1 1 1 1 2
4 3 4 5 6 7 7 5 6 6 5 4 4 7 5 5 6 5 5 4 3 3 3 2 2 1 1 1 1 1 1 1 1 1 1 2 1 1 0 0 0 1 1 1
3 3 5 6 5 6 3 2 4 5 6 6 6 7 5 4 7 6 5 4 3 2 2 1 1 1 1 1 1 1 1 1 1 1 2 2 1 1 0 0 1 0 1 1
3 2 3 3 1 4 4 3 2 3 4 7 7 8 7 5 6 5 4 4 3 2 1 1 1 0 0 0 0 1 1 1 1 2 2 2 2 2 1 1 0 0 0 1
3 4 3 2 4 5 6 5 3 4 5 6 3 7 7 2 3 4 4 3 3 2 1 1 1 1 0 0 0 1 1 1 1 2 2 1 1 1 1 1 0 0 0 0
5 5 4 4 5 6 8 7 5 5 5 3 4 8 3 1 1 2 2 3 3 2 2 1 1 1 1 0 0 1 1 1 1 2 1 1 1 1 1 1 1 1 0 0
5 3 2 2 2 4 6 7 3 3 3 5 6 5 4 2 3 3 4 3 2 2 1 1 1 1 1 1 0 0 1 1 1 2 2 2 1 1 1 1 1 0 0 0
3 3 2 1 2 2 3 3 4 5 5 7 6 7 5 5 5 5 5 4 2 2 1 1 0 1 1 1 1 0 1 1 1 1 1 1 1 1 0 0 0 0 0 0
2 3 2 3 6 6 6 5 5 4 4 5 6 4 1 4 5 6 5 4 3 2 2 1 0 0 0 1 0 0 1 1 1 1 1 1 1 0 0 0 0 0 0 0
2 3 3 4 1 2 5 6 7 6 6 5 6 5 2 2 3 4 4 3 3 2 2 2 1 1 1 1 0 0 0 1 1 1 1 1 1 0 0 0 0 1 1 1
3 3 3 3 4 4 5 5 6 4 4 6 8 6 2 1 2 4 4 4 3 3 2 2 2 2 1 1 1 1 1 1 1 1 1 1 1 1 1 1 1 1 1 1
3 3 6 7 3 3 6 6 7 7 7 8 12 11 7 6 5 5 5 5 4 4 4 3 3 2 2 2 2 2 2 1 2 2 2 2 1 2 1 1 1 1 2 2
4 5 6 6 5 5 8 9 10 12 12 11 12 12 12 10 9 8 6 6 5 6 5 5 4 3 3 3 3 2 2 2 2 2 2 2 2 2 2 2 2 2 2 3
3 4 4 6 6 7 10 12 13 15 14 15 14 16 12 9 8 8 8 7 7 7 6 6 5 4 4 4 3 3 3 3 3 3 2 2 2 2 2 2 2 2 3 3
4 5 4 5 4 5 11 12 14 13 13 13 15 13 8 8 9 9 9 8 8 7 6 6 6 5 5 4 4 4 3 3 3 3 3 3 2 2 2 2 2 3 3 3
5 5 3 3 2 9 5 1 7 11 12 12 12 10 9 10 8 8 8 8 8 8 7 6 5 5 4 3 3 3 3 3 3 3 3 3 3 3 3 3 3 3 3 3
6 6 4 4 6 10 7 4 6 8 9 11 13 13 10 6 6 8 7 7 8 7 6 6 5 5 4 4 4 4 4 3 3 4 4 3 3 3 3 3 3 3 3 4
4 5 5 5 6 8 3 2 2 3 7 5 9 10 7 5 6 5 3 5 6 6 5 5 4 4 4 4 3 4 4 4 4 4 4 4 4 4 4 4 4 3 4 4
5 6 8 8 8 9 2 4 5 6 4 1 4 6 6 7 6 3 2 4 4 4 4 4 4 4 4 4 4 5 5 5 4 4 4 4 4 4 4 4 4 4 4 4
8 7 8 7 8 9 5 7 8 5 1 2 4 5 6 7 5 4 4 4 4 3 4 4 4 4 3 3 4 5 5 4 3 4 4 4 4 3 3 4 4 4 4 5
9 8 6 8 8 3 7 8 6 3 4 4 4 5 5 5 6 5 5 4 4 4 4 4 4 3 3 3 5 6 4 3 3 4 4 4 4 4 4 4 4 4 4 4
6 5 6 8 11 8 8 9 8 7 7 6 5 5 6 6 6 5 4 4 4 4 4 4 4 4 4 4 4 5 4 3 4 4 4 4 4 3 3 3 4 4 4 4
7 7 7 11 11 8 9 11 11 9 7 6 6 6 6 6 6 5 5 5 4 4 4 4 4 4 5 4 4 4 4 4 5 4 4 4 4 4 4 4 4 4 5 5
8 10 10 10 8 7 7 6 8 8 9 8 7 6 6 6 6 6 5 5 4 4 4 4 4 4 4 4 4 3 4 4 5 4 4 4 3 3 3 4 4 6 7 8
Wind_Direction
170 201 209 209 219 249 229 228 241 250 264 244 246 257 255 247 244 245 242 235 229 230 236 246 239 214 184 147 110 98 113 102 110 124 149 169 153 149 122 114 130 132 144 157
185 223 234 218 202 211 221 230 246 254 253 264 265 267 263 247 241 244 245 242 236 228 224 218 217 193 201 190 156 159 151 115 108 105 159 216 171 164 133 112 97 112 149 139
214 176 194 197 196 210 228 237 243 253 273 246 272 257 236 234 229 232 242 244 237 229 229 228 223 211 191 212 232 213 176 137 117 115 131 119 124 129 143 134 126 100 159 162
225 225 195 202 217 225 234 233 236 241 245 241 244 270 235 227 235 233 230 228 234 228 223 229 228 232 216 234 233 217 172 132 138 143 131 141 152 149 210 320 74 120 140 142
207 199 205 221 230 220 221 176 218 233 244 253 228 251 253 208 237 232 226 226 231 236 226 220 238 252 260 243 227 215 172 145 143 145 142 153 145 119 105 104 61 43 138 118
232 217 236 230 212 200 159 152 162 208 230 244 231 233 255 218 229 231 219 212 206 201 189 153 74 43 348 295 213 211 171 150 154 157 156 153 145 138 115 91 86 239 193 144
225 212 197 195 170 168 190 192 208 214 220 243 189 230 254 259 242 231 216 203 184 160 137 102 68 42 28 68 176 203 175 166 172 171 163 158 158 151 142 159 240 256 258 36
216 214 189 202 214 199 200 217 228 242 244 250 205 234 251 3 270 215 194 183 160 137 113 93 68 37 8 27 166 193 188 188 186 186 178 163 157 162 159 198 230 256 270 6
225 219 130 200 247 222 195 214 259 264 280 265 236 243 258 192 203 194 184 173 170 147 132 113 83 37 16 19 78 174 189 191 194 192 185 174 162 157 158 171 208 221 317 354
242 234 225 222 195 224 255 182 189 210 229 246 247 241 237 193 202 197 196 195 185 167 162 139 96 18 6 15 33 127 174 187 192 181 169 150 160 156 146 184 176 114 24 9
229 216 202 197 212 210 185 194 214 217 249 250 254 242 181 213 204 204 207 202 195 194 195 196 212 324 57 86 85 135 164 173 188 191 175 170 166 114 90 94 12 332 346 299
200 225 229 231 256 314 241 222 209 221 223 240 261 262 88 221 217 218 217 208 204 209 210 206 222 235 190 155 147 170 196 191 208 210 188 176 173 164 181 358 338 313 302 300
170 196 206 216 204 205 227 226 226 233 233 233 242 248 105 220 238 226 222 220 218 216 219 222 229 233 215 205 206 207 214 220 213 210 201 194 203 223 246 274 290 282 285 289
187 219 239 251 270 200 219 222 213 214 228 239 246 258 255 251 246 240 236 233 234 235 238 238 242 238 224 221 221 215 209 206 202 200 205 213 233 248 255 267 275 281 280 278
204 234 246 265 270 254 250 241 227 230 239 245 253 257 262 260 258 256 248 244 242 240 240 240 244 242 230 224 222 217 213 210 209 208 209 218 234 245 250 255 263 271 274 278
204 229 243 260 256 255 261 248 236 239 244 248 259 265 267 270 266 258 249 242 239 239 236 236 239 240 234 227 223 216 213 212 219 221 220 220 228 233 240 248 255 258 264 270
195 197 227 259 280 274 260 237 225 230 231 232 241 252 259 257 250 249 246 240 237 238 233 230 231 232 232 227 223 222 218 212 216 220 222 224 231 238 245 252 254 259 267 272
198 207 224 249 234 244 254 200 218 231 243 237 247 256 256 260 271 266 250 240 239 237 232 228 229 230 226 218 215 212 207 210 217 224 228 228 234 246 255 258 262 270 273 273
213 203 203 213 240 266 266 221 201 217 253 234 238 249 258 273 279 259 235 235 239 236 231 226 224 219 214 214 208 202 205 210 219 227 233 234 235 242 248 255 263 268 269 272
199 213 213 213 233 248 258 141 171 208 261 229 227 241 245 232 251 252 213 232 237 236 229 221 214 209 210 212 203 206 213 217 225 231 235 234 235 239 245 254 259 262 264 268
186 204 217 225 240 259 253 144 164 212 255 191 218 230 223 228 256 301 241 234 232 229 223 212 206 210 213 208 203 215 222 227 232 235 235 234 235 239 245 252 254 257 260 267
199 198 207 211 229 246 161 164 208 246 321 243 243 236 235 250 270 269 250 240 232 225 219 211 210 218 218 209 208 222 230 230 227 226 229 231 233 235 240 245 251 253 257 264
219 219 215 215 233 273 184 209 235 254 253 254 250 249 246 254 258 254 248 241 235 228 223 218 212 221 230 223 217 229 232 219 218 223 229 231 232 235 238 243 249 252 253 259
228 230 236 251 255 251 241 245 249 247 254 265 260 251 242 249 251 248 243 238 232 229 224 216 210 220 229 229 228 233 227 214 216 221 226 229 230 234 236 241 245 249 250 256
235 206 230 251 262 270 255 240 243 249 256 259 258 249 241 240 245 242 239 234 230 229 222 213 214 223 231 229 230 230 221 207 214 221 225 228 231 236 240 242 247 251 252 257
220 214 220 242 241 238 254 250 244 244 245 245 247 253 248 240 241 241 240 235 229 225 219 217 223 228 232 228 229 228 220 210 211 218 223 225 227 232 240 247 254 250 254 267